weather.gov     
National Weather Service

Terminal Aerodrome Forecast
NWS Homepage
This page is being discontinued on March 12, 2014.
The same data is available at this site. Please update your bookmarks.
Thank you, and we apologize for the inconvenience.
Please send an email to SR-SRH.Webmaster@noaa.gov with any concerns.


Current Version
Previous Version:    01  02  03  04  05  06  07  08  09  10  11  12  13  14  15  16  17  18  19  20  21  22  23  24  25  26  27  28  29  30  
   31  32  33  34  35  36  37  38  39  
[Printable]
479
FTUS41 KCAR 301759
TAFCAR
TAF
KCAR 301759Z 3018/3118 16006KT 1/2SM SN OVC012
     FM302100 08004KT 1/2SM SN OVC008
     FM310500 33012G20KT 1SM -SN OVC015
     FM310900 34020G35KT 1SM -SN BLSN OVC020=




479
FTUS41 KCAR 301759
TAFCAR
TAF
KCAR 301759Z 3018/3118 16006KT 1/2SM SN OVC012
     FM302100 08004KT 1/2SM SN OVC008
     FM310500 33012G20KT 1SM -SN OVC015
     FM310900 34020G35KT 1SM -SN BLSN OVC020=


U.S. Dept. of Commerce
NOAA National Weather Service
1325 East West Highway
Silver Spring, MD 20910
E-mail: w-nws.webmaster@noaa.gov
Page last modified: May 16, 2007
NATIONAL WEATHER SERVICE: for Safety, for Work, for Fun - FOR LIFE